Location: *
(49.1070°S, 177.0670°W)
Time: 14:35:27
(UTC+00:00)

Daily predictions for brighter satellites

Satellite Brightness Start Highest point End
(mag) Time Altitude Azimuth Time Altitude Azimuth Time Altitude Azimuth
Cosmos 2242 Rocket 4.2 12:00:57 10° SSW 12:05:21 46° W 12:06:37 36° NW
Cosmos 1400 Rocket 3.1 12:02:52 10° S 12:06:57 61° ESE 12:08:17 38° NE
GP-B 3.2 12:03:52 10° S 12:08:23 71° W 12:09:46 43° NNW
Cosmos 1408 3.9 12:12:27 10° S 12:15:25 28° ESE 12:16:33 23° ENE
Iridium 2 4.3 12:12:32 10° SSW 12:15:39 34° W 12:15:50 33° W
Meteor 2-5 Rocket 3.7 12:11:09 10° SSW 12:17:02 87° ESE 12:19:55 31° NNE
SAR-Lupe-4 3.7 12:16:32 47° NE 12:17:26 73° ESE 12:21:06 10° S
SL-24 DEB 4.2 12:23:35 10° S 12:28:21 78° W 12:30:08 38° NNW
Cosmos 1867 4.0 12:25:47 10° SW 12:31:11 63° SE 12:36:32 10° NE
SAR-Lupe-1 4.0 12:31:33 51° N 12:32:23 79° WNW 12:36:07 10° SSW
Cosmos 1697 Rocket 3.0 12:27:03 10° SW 12:32:35 50° WNW 12:34:49 32° NNW
SL-08 R/B 4.5 12:28:44 10° SSW 12:34:58 73° W 12:38:12 30° N
Cosmos 1378 Rocket 3.5 12:32:09 10° SSW 12:36:32 72° W 12:38:03 40° N
Cosmos 1908 Rocket 4.2 12:35:50 30° NNE 12:37:44 51° E 12:42:08 10° SSE
Genesis I 4.3 12:35:04 10° SSW 12:38:38 41° SE 12:42:10 10° ENE
NOSS 3-1 (A) 4.0 12:32:30 10° SW 12:39:23 58° SE 12:44:53 10° ENE
Cosmos 2208 Rocket 4.2 12:34:10 10° SSW 12:39:27 59° WNW 12:41:48 32° N
Cosmos 1733 Rocket 3.4 12:39:19 35° NW 12:40:54 54° WSW 12:45:16 10° S
NOSS 3-1 (C) 3.3 12:34:14 10° SW 12:41:01 87° NW 12:46:03 12° NE
Cosmos 1703 3.1 12:37:19 10° S 12:41:14 88° E 12:42:28 42° N
ADEOS II 2.4 12:39:42 20° NNE 12:43:25 67° ESE 12:48:43 10° S
Cosmos 2098 Rocket 2.9 12:43:49 37° ENE 12:44:18 41° E 12:47:14 10° SSE
Cosmos 2221 Rocket 3.7 12:39:48 10° SSW 12:44:23 66° W 12:46:05 37° NNW
Cosmos 1633 3.6 12:41:35 10° S 12:44:26 33° ESE 12:45:38 23° ENE
Cosmos 1908 3.8 12:43:57 36° WNW 12:44:57 45° WSW 12:48:39 10° S
USA 215 3.9 12:42:47 28° NNW 12:45:03 35° NW 12:51:01 10° WSW
Meteor 1-22 Rocket 4.2 12:43:17 31° NNW 12:45:49 65° WSW 12:51:11 10° S
Cosmos 1470 4.3 12:46:51 21° WNW 12:48:12 25° WSW 12:51:31 10° SSW
SL-16 R/B 3.6 12:47:07 10° SSW 12:52:30 39° SE 12:57:49 10° ENE
Cosmos 1900 4.3 12:48:59 10° SW 12:53:49 61° WNW 12:56:20 27° NNE
Resurs 1-4 Rocket 2.1 12:51:34 29° N 12:54:15 66° WNW 12:59:35 10° SSW
COSMOS 2406 3.4 12:53:14 29° N 12:56:14 66° ENE 13:02:00 10° SSE
Lacrosse 5 rocket 1.9 12:53:40 10° SW 12:57:15 51° SSE 13:00:53 10° ENE
ATLAS CENTAUR R/B 2.5 12:53:15 10° SSW 12:57:39 49° SE 13:01:56 10° ENE
IDEFIX/ARIANE 42P 2.7 12:56:11 29° N 12:58:49 62° WNW 13:04:07 10° SSW
Cosmos 1980 Rocket 2.3 12:55:48 10° SW 13:01:26 60° WNW 13:04:48 24° N
Cosmos 2369 3.7 12:55:48 10° SSW 13:01:30 69° WNW 13:05:23 21° NNE
Cosmos 1892 3.7 12:58:44 10° S 13:02:15 40° ESE 13:04:43 17° NE
CZ-2D R/B 2.4 13:01:05 28° N 13:03:57 58° W 13:09:28 10° SSW
ALOS 3.4 13:01:57 10° NE 13:06:22 42° ESE 13:10:49 10° S
Cosmos 1356 Rocket 4.4 13:08:23 10° SSW 13:12:13 33° W 13:13:29 27° NW
Cosmos 773 Rocket 4.0 13:07:05 10° SSW 13:12:28 75° WNW 13:16:19 19° NNE
BREEZE-M DEB (TANK) 2.7 13:06:58 10° W 13:12:38 83° S 13:15:11 10° E
Cosmos 1300 Rocket 4.3 13:12:28 20° NNE 13:15:16 49° E 13:19:38 10° SSE
Cosmos 1825 3.1 13:12:00 10° S 13:15:29 42° ESE 13:18:14 15° NE
ALOS 2 4.0 13:14:28 10° S 13:18:21 29° WSW 13:20:42 18° WNW
Cosmos 1833 Rocket 3.9 13:15:24 13° WNW 13:19:50 34° SW 13:25:00 10° SSE
CSL-04 DEB 4.5 13:19:28 21° NNE 13:22:19 89° WNW 13:26:41 10° SSW
ATLAS 3B R/B 2.4 13:16:03 10° SW 13:22:20 67° NW 13:28:34 10° NNE
Cosmos 1340 3.0 13:21:18 32° NW 13:22:35 50° WSW 13:26:09 10° S
Cosmos 1300 2.9 13:21:54 32° NW 13:23:20 53° WSW 13:27:01 10° S
FENGYUN 3A 3.6 13:20:37 16° NNE 13:25:04 87° WNW 13:30:34 10° SSW
Cosmos 1025 Rocket 3.0 13:20:55 10° SSW 13:25:24 73° W 13:28:00 24° N
USA 308 1.2 13:25:27 72° WNW 13:25:39 88° SSW 13:28:19 10° ESE
Cosmos 1758 4.5 13:25:43 22° WNW 13:27:26 32° WSW 13:31:06 10° S
Cosmos 1455 3.3 13:26:21 17° NNE 13:28:48 37° E 13:32:15 10° SSE
Cosmos 1934 Rocket 4.4 13:23:30 10° SSW 13:29:41 50° W 13:33:43 21° NNW
SJ 16-02 3.3 13:28:06 12° W 13:31:06 21° SW 13:34:30 10° S
Meteor 2-10 Rocket 4.0 13:27:53 23° NNW 13:31:26 60° WSW 13:37:16 10° S
Helios 1A Rocket 3.4 13:28:38 10° S 13:32:29 45° WSW 13:34:27 25° NW
Cosmos 1605 Rocket 3.9 13:27:17 10° SSW 13:33:27 73° W 13:38:18 17° N
USA 307 3.7 13:34:20 14° NE 13:34:20 14° NE 13:35:24 10° E
USA 305 3.9 13:37:58 11° ENE 13:37:58 11° ENE 13:38:18 10° ENE
Cosmos 2278 3.7 13:32:16 10° SSW 13:38:00 79° WNW 13:43:44 10° NNE
AQUA 4.2 13:35:40 23° NNW 13:38:25 48° W 13:43:05 10° SSW
BREEZE M DEB (TANK) 1.7 13:38:00 26° W 13:39:03 81° S 13:41:47 10° E
Cosmos 371 Rocket 4.0 13:36:53 17° N 13:40:22 49° ENE 13:45:08 10° SSE
Cosmos 2082 Rocket 2.5 13:37:14 20° NW 13:41:11 60° WSW 13:46:54 10° SSE
Cosmos 2237 4.3 13:40:09 10° SSW 13:45:57 85° ESE 13:51:44 10° NNE
Cosmos 1782 Rocket 3.8 13:45:23 22° NNW 13:48:10 61° WSW 13:52:42 10° S
Cosmos 1408 4.1 13:46:36 10° SW 13:48:56 18° W 13:49:33 17° WNW
ATLAS 2AS CENTAUR R/B 3.5 13:46:10 10° WNW 13:52:37 48° SW 13:59:26 10° SE
Cosmos 2100 Rocket 4.4 13:46:27 10° S 13:52:39 65° ESE 13:58:49 10° NNE
Cosmos 1153 Rocket 4.5 13:49:08 10° S 13:55:24 81° W 14:01:40 10° N
Cosmos 44 Rocket 3.2 13:52:48 20° NNW 13:55:59 82° NE 14:00:40 10° SE
Okean 2 Rocket 4.3 13:53:35 10° NNE 13:57:47 40° E 14:01:59 10° SSE
Meteor 1-11 4.5 13:53:03 10° S 13:58:58 77° ESE 14:04:45 10° NNE
Cosmos 2360 Rocket 3.0 13:53:30 10° SSW 13:59:08 57° ESE 14:04:44 10° NE
CZ-2C R/B 3.3 13:53:55 10° N 13:59:25 71° WNW 14:05:17 10° SSW
Cosmos 1953 2.8 13:57:22 21° NW 13:59:41 45° WSW 14:03:34 10° S
COBE Rocket 4.4 13:55:12 10° NNE 13:59:47 57° ESE 14:04:26 10° S
USA 306 2.6 14:00:04 23° NW 14:02:02 59° NE 14:05:42 10° ESE
In-Cosmos 22 Rocket 4.4 13:57:43 10° SSW 14:03:41 87° E 14:09:30 10° NNE
Cosmos 1538 Rocket 4.1 13:58:24 10° SSW 14:03:53 90° WNW 14:09:18 10° NNE
ISS -2.7 14:03:50 20° NNW 14:05:34 34° NE 14:08:42 10° E
Cosmos 2219 Rocket 3.9 14:00:58 10° SSW 14:06:10 36° SE 14:11:21 10° ENE
Cosmos 1975 Rocket 3.6 14:02:17 10° SSW 14:06:27 42° W 14:09:36 16° NNW
Cosmos 1315 Rocket 3.9 14:05:05 10° SSW 14:08:36 29° W 14:10:49 18° NW
MOZ.5/SAFIR/RUBIN 5/SL-8 4.0 14:09:05 10° SSE 14:13:52 74° ENE 14:18:24 11° N
Genesis I 4.2 14:12:09 10° WSW 14:15:12 24° WNW 14:17:20 15° NNW
Cosmos 2322 Rocket 2.2 14:09:34 10° SSW 14:15:17 88° WNW 14:20:56 10° NNE
Cosmos 1633 4.2 14:15:17 10° SW 14:16:54 13° W 14:17:41 12° WNW
USA 229 DEB 3.5 14:11:02 10° SW 14:17:52 85° NW 14:24:05 10° NE
USA 229 3.5 14:11:06 10° SW 14:17:56 86° NW 14:24:09 10° NE
Okean 1 Rocket 4.4 14:16:00 10° NNE 14:20:13 40° E 14:24:28 10° SSE
Cosmos 2333 Rocket 2.7 14:14:36 10° SSW 14:20:18 65° ESE 14:25:58 10° NE
CZ-2C R/B 2.5 14:17:05 10° NNE 14:22:18 88° WNW 14:27:29 10° SSW
ADEOS II 3.6 14:20:36 13° NW 14:23:33 20° W 14:27:27 10° SW
Thor Agena Rocket 3.9 14:20:28 10° N 14:25:22 45° W 14:30:24 10° SSW
Cosmos 1536 Rocket 3.7 14:20:47 10° S 14:25:22 87° E 14:29:54 10° N
SL-16 R/B 4.2 14:24:11 10° SSE 14:29:41 31° E 14:35:05 10° NNE
NOSS 3-1 (A) 3.9 14:24:12 10° SW 14:29:50 34° WNW 14:34:35 10° N
ATLAS CENTAUR R/B 2.4 14:31:42 10° WSW 14:35:31 28° WNW 14:39:14 10° N
Cosmos 2151 Rocket 3.7 14:31:02 10° N 14:35:35 85° W 14:40:13 10° S
Lacrosse 5 rocket 1.8 14:32:25 10° WSW 14:35:41 30° NW 14:39:00 10° NNE
SL-16 R/B 2.6 14:31:17 10° SW 14:36:41 43° WNW 14:42:01 10° N
Cosmos 1892 4.4 14:34:33 10° SW 14:36:55 16° W 14:38:58 11° WNW
Cosmos 1459 Rocket 4.1 14:32:33 10° SSW 14:38:59 68° W 14:45:19 10° N
BREEZE-M DEB (TANK) 2.4 14:38:19 10° W 14:40:10 25° NNW 14:42:42 10° NE
DNEPR-1 R/B 3.5 14:38:45 11° NW 14:42:57 75° SW 14:47:06 10° SE
ALOS 3.4 14:39:52 10° NNW 14:43:46 26° W 14:47:46 10° SW
CZ-2C R/B 4.3 14:39:08 10° SSE 14:44:07 33° E 14:49:07 10° NNE
PAYLOAD A 3.9 14:41:29 10° N 14:46:11 59° WNW 14:50:55 10° SSW
USA 281 3.3 14:42:30 10° NNE 14:49:02 62° WNW 14:55:37 10° SSW
Cosmos 1825 4.0 14:47:39 10° SW 14:49:48 15° W 14:51:57 10° WNW
Cosmos 1484 Rocket 3.5 14:48:50 10° NNE 14:52:30 56° ESE 14:56:10 10° S
Meteor 1-4 Rocket 3.7 14:50:05 10° SW 14:52:41 22° W 14:55:16 10° NW
Envisat 3.3 14:49:48 10° N 14:54:47 52° W 14:59:50 10° SSW
Cosmos 2333 4.2 14:52:27 10° SSW 14:58:09 82° WNW 15:03:48 10° NNE
Cosmos 923 Rocket 4.0 14:54:33 10° SSW 14:59:49 70° WNW 15:05:03 10° NNE
USA 308 3.6 14:57:36 10° WSW 14:59:58 30° S 15:02:41 10° ESE
Cosmos 332 Rocket 3.9 14:55:09 10° NNW 15:00:02 81° WSW 15:04:57 10° SSE
SL-27 R/B 3.5 14:57:25 10° N 15:00:17 36° ENE 15:03:12 10° SE
Fregat R/B Cluster 11 3.6 14:58:20 10° SW 15:02:32 88° SE 15:05:21 10° NE
Cosmos 304 Rocket 4.4 14:58:11 10° NW 15:02:48 44° WSW 15:07:29 10° SSE
Cosmos 1898 Rocket 3.6 14:58:32 10° NNW 15:03:48 89° WSW 15:09:12 10° SSE
Cosmos 1455 3.9 15:01:09 10° WNW 15:03:49 19° WSW 15:06:31 10° SSW
Timation 1 Rocket 4.5 14:59:37 10° NNW 15:05:38 85° ENE 15:11:42 10° SSE
Cosmos 2016 Rocket 4.2 15:00:40 10° SSW 15:07:03 64° W 15:13:22 10° N
